Weather History for Watsonville, CA

Change the Weather History Date:

Sunday, October 16, 2011

  Actual Average Record
Temperature  
Mean Temperature 65 °F 60 °F  
Max Temperature 73 °F 72 °F 93 °F (2008)
Min Temperature 56 °F 48 °F 43 °F (1998)
Degree Days  
Heating Degree Days 0    
Month to date heating degree days 43  
Since 1 July heating degree days 254  
Cooling Degree Days 0    
Month to date cooling degree days 23  
Year to date cooling degree days 92  
Growing Degree Days 14 (Base 50)    
Moisture  
Dew Point 56 °F    
Average Humidity 77    
Maximum Humidity 93    
Minimum Humidity 61    
Precipitation  
Precipitation 0.00 in - 1.58 in (1969)
Month to date precipitation 1.92  
Year to date precipitation 20.26  
Since 1 July precipitation 2.08  
Sea Level Pressure  
Sea Level Pressure 30.04 in    
Wind  
Wind Speed 2 mph (WSW)    
Max Wind Speed 12 mph    
Max Gust Speed 16 mph    
Visibility 10 miles    
Events      
T = Trace of Precipitation, MM = Missing Value Source: NWS Daily Summary

Daily Weather History Graph

Daily Weather History Graph

Search for Another Location

Airport:

Trip Planner

Search our weather history database for the weather conditions in past years. The results will help you decide how hot, cold, wet, or windy it might be!

Date:

Astronomy

Oct. 16, 2011 Rise Set
Actual Time 7:15 AM PDT 6:29 PM PDT
Civil Twilight 6:49 AM PDT 6:55 PM PDT
Nautical Twilight 6:19 AM PDT 7:25 PM PDT
Astronomical Twilight 5:49 AM PDT 7:55 PM PDT
Moon 9:26 PM PDT (10/16) 11:30 AM PDT (10/16)
Length of Visible Light 12h 06m
Length of Day
11h 13m
Waning Gibbous, 81% of the Moon is Illuminated
Oct 16
Waning Gibbous
Oct 19
Last Quarter
Oct 26
New
Nov 2
First Quarter
Nov 10
Full

Hourly Weather History & Observations

Time (PDT) Temp. Dew Point Humidity Pressure Visibility Wind Dir Wind Speed Gust Speed Precip Events Conditions
12:53 AM 61.0 °F 55.0 °F 81% 29.99 in 10.0 mi West 3.5 mph - N/A   Clear
2:53 AM 62.1 °F 55.0 °F 78% 29.99 in 10.0 mi Calm Calm - N/A   Clear
3:53 AM 61.0 °F 55.0 °F 81% 29.99 in 10.0 mi Calm Calm - N/A   Clear
4:49 AM 60.8 °F 55.4 °F 82% 30.00 in 10.0 mi Calm Calm - N/A   Mostly Cloudy
5:53 AM 60.1 °F 55.0 °F 83% 30.02 in 10.0 mi Calm Calm - N/A   Overcast
6:53 AM 59.0 °F 55.9 °F 90% 30.02 in 8.0 mi Calm Calm - N/A   Overcast
7:53 AM 60.1 °F 55.9 °F 86% 30.04 in 8.0 mi Calm Calm - N/A   Overcast
8:53 AM 63.0 °F 57.0 °F 81% 30.05 in 10.0 mi Calm Calm - N/A   Scattered Clouds
9:53 AM 66.0 °F 57.0 °F 73% 30.07 in 10.0 mi Calm Calm - N/A   Mostly Cloudy
10:53 AM 68.0 °F 57.0 °F 68% 30.08 in 10.0 mi WSW 5.8 mph - N/A   Overcast
11:14 AM 69.8 °F 55.4 °F 60% 30.08 in 10.0 mi SW 9.2 mph - N/A   Scattered Clouds
12:53 PM 72.0 °F 57.0 °F 59% 30.07 in 10.0 mi Calm Calm - N/A   Clear
1:53 PM 71.1 °F 57.0 °F 61% 30.06 in 10.0 mi SW 10.4 mph - N/A   Clear
2:53 PM 71.1 °F 57.0 °F 61% 30.04 in 10.0 mi SW 8.1 mph - N/A   Clear
3:53 PM 70.0 °F 57.0 °F 63% 30.04 in 10.0 mi WSW 8.1 mph - N/A   Clear
4:53 PM 68.0 °F 57.0 °F 68% 30.04 in 10.0 mi WSW 9.2 mph - N/A   Clear
5:53 PM 64.9 °F 55.9 °F 73% 30.04 in 10.0 mi WSW 5.8 mph - N/A   Clear
6:53 PM 63.0 °F 55.9 °F 78% 30.04 in 10.0 mi Calm Calm - N/A   Clear
7:53 PM 61.0 °F 55.9 °F 83% 30.06 in 10.0 mi Calm Calm - N/A   Clear
8:53 PM 61.0 °F 55.9 °F 83% 30.06 in 10.0 mi Calm Calm - N/A   Clear
9:53 PM 59.0 °F 55.0 °F 87% 30.07 in 10.0 mi Calm Calm - N/A   Clear
10:53 PM 57.9 °F 55.0 °F 90% 30.08 in 10.0 mi Calm Calm - N/A   Clear
11:53 PM 57.0 °F 53.1 °F 87% 30.08 in 10.0 mi Calm Calm - N/A   Clear